Regional Weather Roundup
Issued by NWS Mt. Holly, NJ

Home | Current Version | Previous Version | Text Only | Print | Product List | Glossary On
Versions: 1 2 3 4 5 6 7 8 9 10 11 12 13 14 15 16 17 18 19 20 21 22 23 24 25 26 27 28 29 30 31 32 33 34 35 36 37 38 39 40 41 42 43 44 45 46 47 48 49 50
000
ASUS41 KPHI 070012
RWRPHI

REGIONAL WEATHER ROUNDUP
NATIONAL WEATHER SERVICE MOUNT HOLLY NJ
800 PM EDT MON JUL 06 2015

NOTE:  "FAIR" INDICATES FEW OR NO CLOUDS BELOW 12,000 FEET WITH NO
SIGNIFICANT WEATHER AND/OR OBSTRUCTIONS TO VISIBILITY.

 * = STATION DOES NOT REPORT PRECIPITATION (E.G. RAIN, SNOW, ETC.)
        OR FOG.

NJZ015>026-070100-
SOUTHERN NEW JERSEY

CITY           SKY/WX    TMP DP  RH WIND       PRES   REMARKS
POMONA         NOT AVBL
RIO GRANDE*    CLOUDY    77  72  83 SE10      30.09S
MILLVILLE      PTCLDY    78  73  84 SE8       30.07S
WRIGHTSTOWN    PTCLDY    77  73  87 SE8       30.07R
MOUNT HOLLY    PTCLDY    79  70  74 SE5       30.07S
TRENTON        PTCLDY    77  71  82 SE9       30.07F
6HR MIN TEMP:  77; 6HR MAX TEMP:  85; 6HR PCP:  0.09;


$$
NJZ001>014-070100-
NORTHERN NEW JERSEY

CITY           SKY/WX    TMP DP  RH WIND       PRES   REMARKS
SUSSEX         MOCLDY    77  66  68 S6        30.10S
ANDOVER*         N/A     76  68  76 VRB3      30.10F
MORRISTOWN     MOCLDY    77  72  83 CALM      30.11F
NEWARK         MOCLDY    76  64  66 SE12      30.10F
TETERBORO      MOCLDY    78  65  63 S9        30.09F
CALDWELL       MOCLDY    76  65  68 VRB7      30.10F
SOMERVILLE     MOCLDY    74  70  87 CALM      30.08F
ALLAIRE*       CLOUDY    73  64  73 SE12      30.11F
TOMS RIVER*    CLOUDY    75  70  83 SE5       30.11S

$$
PAZ043-044-047-054-055-060>062-066>071-070100-
EASTERN PENNSYLVANIA

CITY           SKY/WX    TMP DP  RH WIND       PRES   REMARKS
PHILADELPHIA   MOCLDY    82  72  71 SE8       30.06S THUNDER
6HR MIN TEMP:  82; 6HR MAX TEMP:  88;

NORTH PHILA    MOCLDY    82  68  62 SE8       30.08S
BLUE BELL      MOCLDY    81  72  74 CALM      30.06S
DOYLESTOWN     LGT RAIN  75  72  90 VRB3      30.07S
QUAKERTOWN*    MOCLDY    77  72  83 S13G20    30.10R
POTTSTOWN      PTCLDY    75  72  90 NE3       30.08F
LANCASTER      MOCLDY    78  72  81 SE7       30.04F
COATESVILLE    PTCLDY    75  73  94 CALM      30.08F
READING        PTCLDY    75  70  84 CALM      30.04F
6HR MIN TEMP:  75; 6HR MAX TEMP:  85; 6HR PCP:  0.03;

ALLENTOWN      PTCLDY    78  71  79 E12       30.07S
6HR MIN TEMP:  75; 6HR MAX TEMP:  85; 6HR PCP:  0.72;

MOUNT POCONO   MOCLDY    71  64  78 SE8       30.14F
6HR MIN TEMP:  71; 6HR MAX TEMP:  79; 6HR PCP: TRACE;

HAZLETON       LGT RAIN  72  70  94 E5        30.14F
WILKES BARRE   MOCLDY    78  65  63 VRB7      30.07F

$$
DEZALL-MDZ008-012-015-019-020-070100-
DELAWARE AND EASTERN MARYLAND

CITY           SKY/WX    TMP DP  RH WIND       PRES   REMARKS
WILMINGTON     PTCLDY    79  74  84 S12       30.05F
6HR MIN TEMP:  78; 6HR MAX TEMP:  85; 6HR PCP:  0.06;

DOVER          CLOUDY    77  77 100 E12       30.04S
GEORGETOWN     CLEAR     80  74  81 S9        30.06S
6HR MIN TEMP:  74; 6HR MAX TEMP:  88; 6HR PCP:  1.05;

EASTON         MOCLDY    84  73  70 S9        30.07S HX  91
ABERDEEN       MOCLDY    81  73  78 E7        30.03S
PATUXENT       TSTM      75  70  84 SW20G30   30.06R
OCEAN CITY     PTCLDY    78  74  87 S6        30.07S
WALLOPS ISLAND PTCLDY    77  74  90 S9        30.07S
CAMBRIDGE      CLEAR     82  70  65 S7        30.04S
SALISBURY      CLEAR     80  74  81 SE7       30.06R

$$
PAZ001-021-NYZ056-072-MDZ011-DCZ001-070100-
OTHER NEARBY LOCATIONS

CITY           SKY/WX    TMP DP  RH WIND       PRES   REMARKS
HARRISBURG     LGT RAIN  77  70  79 S9        30.02F
STATE COLLEGE  PTCLDY    72  70  94 CALM      30.06S
WILLIAMSPORT   PTCLDY    79  68  69 SE7       30.02S
BINGHAMTON     CLEAR     73  67  81 SE6       30.09F
NEW YORK CITY  MOCLDY    76  62  62 S8        30.13F
BALTIMORE      MOCLDY    81  71  71 SE8       30.01F THUNDER
WASHINGTON DC  MOCLDY    81  74  79 S7        30.02S

$$



USA.gov is the U.S. government's official web portal to all federal, state and local government web resources and services.